Regional Weather Roundup
Issued by NWS

Home | Current Version | Previous Version | Graphics & Text | Print | Product List | Glossary On
Versions: 1 2 3 4 5 6 7 8 9 10 11 12 13 14 15 16 17 18 19 20 21 22 23 24 25 26 27 28 29 30 31 32 33 34 35 36 37 38 39 40 41 42 43 44 45 46 47 48 49 50
979
ASUS43 KFSD 250402
RWRSD

WEATHER ROUNDUP FOR SOUTH DAKOTA
NATIONAL WEATHER SERVICE SIOUX FALLS SD
1000 PM CST SAT FEB 24 2018

NOTE: "FAIR" INDICATES FEW OR NO CLOUDS BELOW 12,000 FEET WITH NO
SIGNIFICANT WEATHER AND/OR OBSTRUCTIONS TO VISIBILITY.


SDZ001>005-009-010-012>017-250500-
NORTHWEST AND NORTH CENTRAL SOUTH DAKOTA

CITY           SKY/WX    TMP DP  RH WIND       PRES   REMARKS
BUFFALO          N/A     13   4  67 W15       29.57R WCI  -3
FAITH            N/A     17  10  74 W16       29.65S WCI   2
MOBRIDGE       PTCLDY     8   3  80 W7        29.61R WCI  -3
$$

SDZ012>016-024>037-041>051-057-063-072>074-250500-
SOUTHWEST AND SOUTH CENTRAL SOUTH DAKOTA

CITY           SKY/WX    TMP DP  RH WIND       PRES   REMARKS
RAPID CTY ARPT CLEAR      6   2  83 CALM      29.70S
PIERRE         CLEAR     17  10  74 W17       29.69R WCI   1
CUSTER         PTCLDY    16   0  49 W8G17     29.63R WCI   5
ELLSWORTH AFB  CLEAR     15   4  62 W5        29.68S WCI   8
PHILIP         CLEAR     13   7  77 CALM      29.74R
PINE RIDGE     CLEAR     13   8  81 NW3       29.76R
SPEARFISH        N/A     25   7  46 W21G26    29.66S WCI  10
WINNER         FAIR      21  11  65 W16       29.73R WCI   7
$$

SDZ004>011-016>023-039-040-250500-
NORTHEAST SOUTH DAKOTA

CITY           SKY/WX    TMP DP  RH WIND       PRES   REMARKS
ABERDEEN       LGT SNOW  13  11  92 SW7       29.64R FOG     WCI   3
WATERTOWN      CLOUDY    13  12  96 NW16      29.57S WCI  -3
BROOKINGS      CLOUDY    14  11  87 W16       29.60S WCI  -2
SISSETON         N/A     13  11  92 NW9       29.58F WCI   1
$$

SDZ017-020-022-023-036>040-048>070-250500-
SOUTHEAST SOUTH DAKOTA

CITY           SKY/WX    TMP DP  RH WIND       PRES   REMARKS
SIOUX FALLS    CLEAR     12   8  84 W15G22    29.68R WCI  -4
HURON          MOCLDY     6   4  91 W8        29.68R WCI  -7
CHAMBERLAIN    CLEAR     12   8  81 W9        29.71R WCI   0
MITCHELL       PTCLDY    10   7  87 W13       29.72S WCI  -5
YANKTON        CLOUDY    17  13  84 W16       29.74R WCI   2
$$

ABBREVIATIONS USED IN REMARKS
   TC - TEMPERATURE IN CELSIUS
  WCI - WIND CHILL INDEX
   HX - HEAT INDEX
  VSB - VISIBILITY





USA.gov is the U.S. government's official web portal to all federal, state and local government web resources and services.